Weather in Verkhneye Penzhino

Russia / Kamchatka Krai     64°13′18″N   164°14′13″E
temp.,
°C
wind,
m/s
gust,
m/s
humid.,
%
clouds,
%
prec.,
mm/h
press.,
hPa
HPBL,
m
28 february, sun
sun2800:00−31nnw22740 0.0 103119
03:00−32nnw11740 0.0 103119
06:00−33nnw11730 0.0 103019
09:00−33nw01730 0.0 103119
12:00−28se00750 0.0 103034
15:00−26sse01820 0.0 102849
18:00−31nne11820 0.0 102819
21:00−32n11780 0.0 102719
1 march, mon
mon100:00−32n12720 0.0 102619
03:00−31n23700 0.0 102322
06:00−29nne237017 0.0 102021
09:00−28n337273 0.0 101828
12:00−24n347987 0.0 1016140
15:00−22n3581100 0.0 1014214
18:00−24n3482100 0.0 101363
21:00−27n3481100 0.0 101543
2 march, tue
tue200:00−29nnw448194 0.0 101545
03:00−30nnw338076 0.0 101628
06:00−30nnw337971 0.0 101628
09:00−29nw237733 0.0 101828
12:00−24nw238025 0.0 1018109
15:00−22nw238375 0.0 1019121
18:00−25nnw227766 0.0 102120
21:00−27nnw237314 0.0 102422
3 march, wed
wed300:00−29nnw22749 0.0 102520
03:00−30nnw127456 0.0 102619
06:00−30n117369 0.0 102719
09:00−30w0072100 0.0 102819
12:00−26ese007394 0.0 102853
15:00−25ese017833 0.0 1027124
18:00−27ne118250 0.0 102519
21:00−27ene1181100 0.0 102319
4 march, thu
thu400:00−24nne1186100 0.0 101881
03:00−23ne2399100 0.4 1012149
06:00−22ene31399100 2.8 1002518
09:00−22ene42098100 5.1 994789
12:00−20ene42097100 8.9 985831
15:00−14e192992100 3.5 9781085
18:00−17e152793100 6.2 973852
21:00−16n51596100 3.3 974514